Powrót do katalogu

STARLINK-30704

AktywnyŁącznośćVLEO
NORAD 57946·PAYLOAD·🇺🇸 United States

Wystrzelony Sep 25, 2023 z Vandenberg Space Force Base

Loading…

Następne Przeloty (najbliższe 24 godziny)

TLE

ŚwieżeSource: CelesTrak SupGP

Epoka: Sep 14, 2026, 21:11 UTC

1 57946C 23148M   26257.88312500  .00012395  00000+0  36625-3 0  2579
2 57946  53.1584 299.6257 0001104  93.0474  28.0389 15.34380146    18

Śledź STARLINK-30704 w czasie rzeczywistym z AllMySat

Download on the App Store